Overview Statistics Trail Chart Weather Telemetry Raw packets
 

This is the latest recevied weather packets stored in our database for station/object KC9NPJ-13. If no packets are shown the sender has not sent any weather packets the latest 10 day(s).

<< 110 111 112 113 114 115 116 >>
Time Temp. Humidity Pressure Rain* Wind** Luminosity Snow
1787798153 25.56° C 76% 1014 hPa 0 mm - - -
1787797853 25.56° C 77% 1013.9 hPa 0 mm - - -
1787797553 25° C 78% 1013.7 hPa 0 mm - - -
1787797253 25° C 79% 1013.7 hPa 0 mm - - -
1787796953 25° C 80% 1013.5 hPa 0 mm - - -
1787796653 25° C 80% 1013.4 hPa 0 mm - - -
1787796353 24.44° C 81% 1013.4 hPa 0 mm - - -
1787796053 24.44° C 82% 1013.3 hPa 0 mm - - -
1787795753 24.44° C 83% 1013.3 hPa 0 mm - - -
1787795453 24.44° C 83% 1013.3 hPa 0 mm - - -
1787795153 24.44° C 83% 1013.3 hPa 0 mm - - -
1787794853 24.44° C 83% 1013.3 hPa 0 mm - - -
1787794553 24.44° C 82% 1013.3 hPa 0 mm - - -
1787794253 24.44° C 82% 1013.3 hPa 0 mm - - -
1787793953 25° C 81% 1013.4 hPa 0 mm - - -
1787793653 25° C 81% 1013.2 hPa 0 mm - - -
1787793353 25° C 81% 1013.2 hPa 0 mm - - -
1787793053 25° C 80% 1013.2 hPa 0 mm - - -
1787792753 25.56° C 79% 1013.3 hPa 0 mm - - -
1787792453 25.56° C 79% 1013.2 hPa 0 mm - - -
1787792153 26.11° C 79% 1013.1 hPa 0 mm - - -
1787791853 26.67° C 78% 1013.1 hPa 0 mm - - -
1787791553 26.67° C 77% 1013 hPa 0 mm - - -
1787791253 27.22° C 75% 1013 hPa 0 mm - - -
1787790953 27.78° C 75% 1013 hPa 0 mm - - -

* Rain latest hour (hover to see other rain measurements)
** Current wind speed in m/s (hover to see current wind gust speed)